Weather in Lugo

Spain     43°00′49″N   7°33′17″W
temp.,
°C
wind,
m/s
gust,
m/s
humid.,
%
clouds,
%
prec.,
mm/h
press.,
hPa
HPBL,
m
2 december, thu
thu201:00+6nw41296100 4.9 10171359
04:00+5nnw31294100 4.0 10181364
07:00+5n3109343 4.5 1019902
10:00+5nnw3109337 0.1 1022746
13:00+8n38807 0.3 10221180
16:00+7n377810 0.4 10221035
19:00+5n2109277 0.6 1025593
22:00+2nnw119786 0.0 102712
3 december, fri
fri301:00+4wnw119698 0.0 102747
04:00+4s1195100 0.0 102623
07:00+5sse1192100 0.0 102644
10:00+5s1390100 0.0 1027121
13:00+8ssw2481100 0.0 1026365
16:00+9s278199 0.0 1024532
19:00+8s2888100 0.0 1024459
22:00+8ssw2991100 0.0 1024605
4 december, sat
sat401:00+9ssw41284100 0.0 1022908
04:00+9ssw41297100 2.4 1020831
07:00+10nw2998100 9.3 1022708
10:00+7sw019398 0.2 102623
13:00+9wnw279116 0.7 1026723
16:00+8nw38886 0.8 1027968
19:00+5w179590 1.2 1029337
22:00+6w279494 0.5 1029535
5 december, sun
sun501:00+6w1796100 0.6 1029543
04:00+5wnw169693 0.6 1030364
07:00+6nw299581 1.1 1030779
10:00+6nw199776 0.4 1030802
13:00+9nw3986100 0.8 10301092
16:00+8nw2889100 0.6 1029951
19:00+7nw2895100 0.8 1030709
22:00+7nnw289660 0.2 1031530
6 december, mon
mon601:00+7nw179890 0.3 1030453
04:00+7nnw1695100 0.1 1030295
07:00+7nnw1593100 0.1 1030162
10:00+6ssw009352 0.0 103128
13:00+10s017660 0.0 1029483
16:00+11ene017340 0.0 1027621
19:00+8se119199 0.0 102813
22:00+8sse11882 0.0 102732